Regional Weather Roundup
Issued by NWS

Home | Current Version | Previous Version | Text Only | Print | Product List | Glossary Off
Versions: 1 2 3 4 5 6 7 8 9 10 11 12 13 14 15 16 17 18 19 20 21 22 23 24 25 26 27 28 29 30 31 32 33 34 35 36 37 38 39 40 41 42 43 44 45 46 47 48 49 50

000
ASUS45 KBOI 301010
RWRID

IDAHO REGIONAL WEATHER ROUNDUP
NATIONAL WEATHER SERVICE BOISE ID
400 AM MDT TUE JUN 30 2015

NOTE: "FAIR" INDICATES FEW OR NO CLOUDS BELOW 12000 FEET
WITH NO SIGNIFICANT WEATHER AND/OR OBSTRUCTIONS TO VISIBILITY

IDZ012-014-301100-
SOUTHWEST IDAHO


CITY           SKY/WX    TMP DP  RH WIND       PRES   REMARKS
BOISE          PTCLDY    80  55  42 W3        29.97R
CALDWELL       PTCLDY    75  54  46 W8        29.96S
MOUNTAIN HOME  PTCLDY    75  56  51 E7        29.96S
$$

IDZ016-017-301100-
SOUTHCENTRAL IDAHO


CITY           SKY/WX    TMP DP  RH WIND       PRES   REMARKS
BURLEY         MOCLDY    67  55  65 SW5       30.05S
JEROME         MOCLDY    72  52  49 NE10      30.06S
TWIN FALLS     PTCLDY    75  51  43 S13       30.03S
$$

IDZ019>023-301100-
SOUTHEAST IDAHO


CITY           SKY/WX    TMP DP  RH WIND       PRES   REMARKS
IDAHO FALLS    MOCLDY    66  56  70 SE9       30.13F
POCATELLO      CLEAR     68  61  78 N9        30.10S
REXBURG        MOCLDY    64  55  72 E9        30.15F
$$

IDZ006-010-011-018-031-032-301100-
CENTRAL IDAHO MOUNTAINS


CITY           SKY/WX    TMP DP  RH WIND       PRES   REMARKS
MCCALL         PTCLDY    72  54  53 NW3       30.14R
HAILEY         MOCLDY    70  54  56 NW12      30.18R
STANLEY          N/A     62  48  60 N3        30.26R
SALMON         PTCLDY    64  57  77 CALM      30.11F
CHALLIS        NOT AVBL
$$

IDZ002-004-006-007-026-301100-
NORTHERN IDAHO


CITY           SKY/WX    TMP DP  RH WIND       PRES   REMARKS
LEWISTON       CLEAR     76  55  48 S7        29.94S
LOWELL           N/A     69  64  84 NW3       29.98R
COEUR D`ALENE  CLEAR     68  57  68 N7        29.99S
MULLAN PASS    CLEAR     63  51  65 NW5       30.21S
$$


USA.gov is the U.S. government's official web portal to all federal, state and local government web resources and services.